Weather History for Custer, SD

Change the Weather History Date:

Sunday, December 29, 2013

  Actual Average Record
Temperature  
Mean Temperature 21 °F 23 °F  
Max Temperature 40 °F 34 °F 56 °F (1956)
Min Temperature 1 °F 13 °F -24 °F (1946)
Degree Days  
Heating Degree Days 44 42  
Month to date heating degree days 1284 1207  
Since 1 July heating degree days 3396 3388  
Cooling Degree Days 0 0  
Month to date cooling degree days 0 0  
Year to date cooling degree days 187 177  
Moisture  
Dew Point 9 °F    
Average Humidity 63    
Maximum Humidity 86    
Minimum Humidity 39    
Precipitation  
Precipitation 0.01 in 0.01 in 0.14 in (2006)
Month to date precipitation 0.90 0.35  
Year to date precipitation 22.32 18.92  
Sea Level Pressure  
Sea Level Pressure 30.08 in    
Wind  
Wind Speed 6 mph (West)    
Max Wind Speed 17 mph    
Max Gust Speed 23 mph    
Visibility 9 miles    
Events Snow    
T = Trace of Precipitation, MM = Missing Value Source: NWS Daily Summary

Daily Weather History Graph

Daily Weather History Graph

Search for Another Location

Airport:

Trip Planner

Search our weather history database for the weather conditions in past years. The results will help you decide how hot, cold, wet, or windy it might be!

Date:

Astronomy

Dec. 29, 2013 Rise Set
Actual Time 7:27 AM MST 4:25 PM MST
Civil Twilight 6:55 AM MST 4:58 PM MST
Nautical Twilight 6:18 AM MST 5:34 PM MST
Astronomical Twilight 5:43 AM MST 6:09 PM MST
Moon 4:11 AM MST (12/29) 2:07 PM MST (12/29)
Length of Visible Light 10h 03m
Length of Day
8h 57m
Waning Crescent, 10% of the Moon is Illuminated
Dec 29
Waning Crescent
Jan 1
New
Jan 7
First Quarter
Jan 15
Full
Jan 23
Last Quarter

Hourly Weather History & Observations

Time (MST) Temp. Windchill Dew Point Humidity Pressure Visibility Wind Dir Wind Speed Gust Speed Precip Events Conditions
12:06 AM 15.8 °F 10.2 °F 3.2 °F 58% 30.14 in 9.0 mi Variable 3.5 mph - N/A   Overcast
12:53 AM 14.0 °F - 1.9 °F 59% 30.23 in 9.0 mi Calm Calm - 0.00 in   Mostly Cloudy
1:07 AM 10.4 °F 2.2 °F 1.4 °F 67% 30.12 in 10.0 mi WSW 4.6 mph - N/A   Scattered Clouds
1:53 AM 6.1 °F - -0.0 °F 76% 30.27 in 10.0 mi Calm Calm - N/A   Partly Cloudy
2:53 AM 6.1 °F - -2.9 °F 67% 30.25 in 10.0 mi Calm Calm - N/A   Scattered Clouds
3:53 AM 10.9 °F - -4.0 °F 51% 30.22 in 10.0 mi Calm Calm - N/A   Partly Cloudy
4:53 AM 8.1 °F - -4.0 °F 58% 30.26 in 10.0 mi Calm Calm - N/A   Clear
5:53 AM 9.0 °F 2.4 °F -4.0 °F 56% 30.27 in 10.0 mi WSW 3.5 mph - N/A   Mostly Cloudy
6:53 AM 3.9 °F - -0.9 °F 80% 30.33 in 10.0 mi Calm Calm - N/A   Scattered Clouds
7:53 AM 9.0 °F 0.6 °F 1.9 °F 73% 30.30 in 10.0 mi West 4.6 mph - N/A   Clear
8:53 AM 23.0 °F 15.8 °F 8.1 °F 53% 30.23 in 10.0 mi WSW 5.8 mph - N/A   Clear
9:53 AM 26.1 °F 17.6 °F 10.0 °F 51% 30.22 in 10.0 mi West 8.1 mph - N/A   Clear
10:53 AM 30.9 °F 23.5 °F 9.0 °F 40% 30.17 in 10.0 mi West 8.1 mph - N/A   Clear
11:53 AM 27.0 °F 17.3 °F 10.0 °F 49% 30.15 in 10.0 mi West 10.4 mph - N/A   Scattered Clouds
12:53 PM 30.0 °F 22.4 °F 10.9 °F 45% 30.09 in 10.0 mi WSW 8.1 mph - N/A   Clear
1:53 PM 32.0 °F 25.6 °F 10.9 °F 42% 30.09 in 10.0 mi WSW 6.9 mph 16.1 mph N/A   Clear
2:53 PM 30.0 °F 23.2 °F 10.9 °F 45% 30.08 in 10.0 mi WSW 6.9 mph - N/A   Clear
3:53 PM 27.0 °F 17.3 °F 12.9 °F 56% 30.04 in 10.0 mi WSW 10.4 mph - N/A   Mostly Cloudy
4:53 PM 25.0 °F 17.1 °F 12.9 °F 60% 30.03 in 10.0 mi West 6.9 mph - N/A   Overcast
5:53 PM 25.0 °F 18.1 °F 12.9 °F 60% 30.01 in 10.0 mi West 5.8 mph - N/A   Overcast
6:53 PM 25.0 °F 15.5 °F 12.9 °F 60% 30.03 in 10.0 mi West 9.2 mph - N/A   Overcast
7:53 PM 23.0 °F 12.4 °F 14.0 °F 68% 30.00 in 8.0 mi West 10.4 mph 19.6 mph N/A   Overcast
8:10 PM 21.2 °F 10.1 °F 15.8 °F 80% 29.81 in 2.5 mi West 10.4 mph - 0.00 in Snow Light Snow
8:24 PM 21.2 °F 10.1 °F 15.8 °F 80% 29.81 in 3.0 mi West 10.4 mph - 0.00 in Snow Light Snow
8:33 PM 23.0 °F 12.4 °F 17.6 °F 80% 29.81 in 1.8 mi West 10.4 mph 16.1 mph 0.00 in Snow Light Snow
8:43 PM 23.0 °F 14.7 °F 17.6 °F 80% 29.81 in 2.0 mi West 6.9 mph - 0.00 in Snow Light Snow
8:53 PM 23.0 °F 13.9 °F 17.1 °F 78% 29.94 in 3.0 mi West 8.1 mph - 0.01 in Snow Light Snow
9:53 PM 24.1 °F 13.7 °F 17.1 °F 75% 29.91 in 10.0 mi West 10.4 mph - 0.00 in   Mostly Cloudy
10:53 PM 23.0 °F 11.7 °F 18.0 °F 81% 29.89 in 10.0 mi West 11.5 mph 19.6 mph N/A   Mostly Cloudy
11:53 PM 24.1 °F 16.0 °F 17.1 °F 75% 29.89 in 10.0 mi WNW 6.9 mph - N/A   Partly Cloudy